Location: Miles
(41.4492°N, 81.6087°W)
Time: 06:23:39
(UTC+00:00)

Vanguard 1 Rocket - Pass Details

Date: 17 September 2024
Orbit: 650 x 4218 km, 34.3° (Epoch: 05 October)

Event Time Altitude Azimuth Distance (km) Brightness Sun altitude
Rises 07:47:20 0° 223° (SW) 4,817 - -35.3°
Reaches altitude 10° 07:50:03 10° 217° (SW) 4,184 - -34.9°
Exits shadow 07:57:35 41° 182° (S) 3,227 9.7 -33.9°
Maximum altitude 08:01:38 48° 147° (SSE) 3,365 10.0 -33.3°
Drops below altitude 10° 08:22:12 10° 83° (E) 7,124 12.6 -30.2°
Sets 08:28:39 0° 79° (E) 8,382 13.3 -29.2°
